Location: Ravensburg
(48.5621°N, 13.4088°E)
Time: 02:05:21
(UTC+01:00)

ISS - Pass Details

Date: 12 November 2017
Orbit: 402 x 407 km, 51.6° (Epoch: 21 November)

Event Time Altitude Azimuth Distance (km) Brightness Sun altitude
Exits shadow 04:19:52 18° 72° (ENE) 1,074 -1.0 -28.1°
Drops below altitude 10° 04:20:52 10° 79° (ENE) 1,457 -0.1 -27.9°
Sets 04:23:00 0° 85° (E) 2,316 1.3 -27.6°
